Weather observations for the past three days for
Patuxent River, Naval Air Station
Metric (Imperial)
Date Time (edt) Wind (kph) Vis. (km) Weather Sky Cond. Temperature (ºC) Relative Humidity Wind Chill (°C) Heat Index (°C) Pressure Precipitation (cm)
Air Dwpt 6 hour altimeter (cm) sea level (mb) 1 hr 3 hr 6 hr
Max. Min.
21 11:52 SW 13 16.09 A Few Clouds FEW030 FEW080 31.7 18.9 47% 33 76.76 1023.4
21 10:52 SW 11 16.09 Partly Cloudy FEW040 FEW080 SCT150 30 19.4 53% 32 76.78 1023.7
21 09:52 SW 15 16.09 Partly Cloudy FEW080 SCT150 28.9 18.9 55% 30 76.78 1023.8
21 08:52 SW 15 16.09 A Few Clouds FEW080 FEW150 27.2 18.9 61% 28 76.81 1024.0
21 07:52 SW 13 16.09 A Few Clouds FEW080 FEW150 25.6 18.9 25.6 22.2 67% 27 76.81 1024.1
21 06:52 SW 13 16.09 A Few Clouds FEW060 FEW250 23.9 18.9 74% 25 76.81 1024.2
21 05:52 S 6 16.09 A Few Clouds FEW060 FEW250 22.8 18.9 79% 76.84 1024.3
21 04:52 S 6 16.09 Fair CLR 23.3 18.9 76% 76.81 1023.9
21 03:52 Calm 0.00 NULL NULL 22.8 18.9 79% 76.81 1023.9
21 02:52 S 6 16.09 Fair CLR 22.8 18.9 79% 76.81 1024.1
21 01:52 S 6 16.09 Fair CLR 23.9 19.4 27.8 23.9 76% 24 76.86 1024.6
21 00:52 S 9 16.09 Fair CLR 24.4 18.9 72% 25 76.86 1024.8
20 23:52 S 7 16.09 Fair CLR 24.4 19.4 74% 25 76.89 1025.1
20 22:52 S 9 16.09 A Few Clouds FEW300 25 19.4 71% 26 76.91 1025.2
20 21:52 S 9 16.09 A Few Clouds FEW300 25.6 18.9 67% 27 76.89 1024.9
20 20:52 S 9 16.09 A Few Clouds FEW300 26.7 18.3 60% 28 76.86 1024.6
20 19:52 S 13 16.09 A Few Clouds FEW300 27.8 18.3 30.6 27.8 56% 29 76.86 1024.6
20 18:52 SE 13 16.09 A Few Clouds FEW300 28.3 18.3 55% 29 76.86 1024.8
20 17:52 SE 17 G 33 16.09 A Few Clouds FEW050 FEW300 29.4 19.4 55% 31 76.89 1024.9
20 16:52 SE 20 G 35 16.09 A Few Clouds FEW045 FEW300 29.4 18.3 51% 30 76.91 1025.4
20 15:52 SE 19 G 35 16.09 A Few Clouds FEW045 FEW300 29.4 18.9 53% 31 76.96 1026.0
20 14:52 E 22 16.09 A Few Clouds FEW045 FEW300 29.4 20 57% 31 77.01 1026.6
20 13:52 E 19 16.09 Partly Cloudy FEW040 SCT250 29.4 20 29.4 25.6 57% 31 77.04 1026.9
20 12:52 SE 17 16.09 Partly Cloudy FEW040 SCT250 29.4 20 57% 31 77.06 1027.5
20 11:52 SE 13 16.09 Partly Cloudy FEW040 SCT250 28.9 18.9 55% 30 77.09 1027.7
20 10:52 E 17 16.09 Partly Cloudy SCT250 28.9 18.9 55% 30 77.09 1027.9
20 09:52 S 9 16.09 Partly Cloudy SCT250 28.3 17.8 53% 29 77.11 1028.0
20 08:52 Vrbl 6 16.09 A Few Clouds FEW250 27.2 19.4 62% 29 77.14 1028.5
20 07:52 Vrbl 6 16.09 A Few Clouds FEW250 25.6 20 25.6 20 71% 27 77.11 1028.1
20 06:52 Calm 16.09 A Few Clouds FEW045 FEW250 23.3 20 82% 77.09 1027.6
20 05:52 SE 11 16.09 A Few Clouds FEW045 FEW250 20 17.8 87% 77.06 1027.4
20 04:52 Calm 16.09 Fair CLR 20.6 17.8 84% 77.04 1027.1
20 03:52 Calm 16.09 Fair CLR 20.6 17.8 84% 77.04 1027.0
20 02:52 Calm 16.09 Fair CLR 21.1 17.8 82% 77.01 1026.7
20 01:52 S 7 16.09 Fair CLR 23.3 18.3 27.8 23.3 74% 77.01 1026.7
20 00:52 S 9 16.09 Fair CLR 23.9 18.3 71% 25 77.01 1026.7
19 23:52 S 9 16.09 Fair CLR 23.9 18.3 71% 25 77.06 1027.3
19 22:52 S 9 16.09 Fair CLR 25 18.3 66% 26 77.06 1027.5
19 21:52 S 11 16.09 Fair CLR 25.6 18.3 64% 27 77.04 1027.2
19 20:52 Calm 16.09 Fair CLR 26.7 18.9 62% 28 77.01 1026.9
19 19:52 SE 11 16.09 Fair CLR 27.8 18.9 30 27.8 58% 29 76.99 1026.4
19 18:52 SE 17 16.09 Fair CLR 28.3 19.4 59% 30 77.01 1026.6
19 17:52 SE 15 16.09 Fair CLR 28.9 18.9 55% 30 77.01 1026.6
19 16:52 SE 19 G 37 16.09 Fair CLR 29.4 18.3 51% 30 77.04 1026.9
19 15:52 SE 15 16.09 Fair CLR 29.4 18.9 53% 31 77.04 1027.2
19 14:52 SE 22 16.09 Fair CLR 29.4 19.4 55% 31 77.06 1027.4
19 13:52 SE 19 16.09 Fair CLR 29.4 19.4 29.4 25 55% 31 77.11 1028.0
19 12:52 SE 17 16.09 Fair CLR 28.9 18.9 55% 30 77.11 1028.2
19 11:52 SE 17 16.09 Fair CLR 27.8 18.9 58% 29 77.14 1028.5
19 10:52 SE 19 16.09 Fair CLR 27.8 19.4 60% 29 77.14 1028.4
19 09:52 SE 15 16.09 A Few Clouds FEW027 27.2 19.4 62% 29 77.14 1028.4
19 08:52 E 6 16.09 Partly Cloudy SCT021 26.7 19.4 64% 28 77.14 1028.5
19 07:52 S 6 16.09 Fair CLR 25 19.4 25 20 71% 26 77.09 1027.7
19 06:52 SE 7 16.09 Fair CLR 23.3 19.4 79% 77.04 1027.0
19 05:52 Calm 16.09 Fair CLR 20 17.8 87% 77.04 1027.1
19 04:52 Calm 16.09 Fair CLR 20.6 17.8 84% 77.01 1026.6
19 03:52 S 6 16.09 Fair CLR 22.8 18.9 79% 76.96 1026.1
19 02:52 Calm 16.09 Fair CLR 22.8 18.9 79% 76.94 1025.7
19 01:52 S 7 16.09 Fair CLR 23.3 18.9 27.2 23.3 76% 76.94 1025.6
19 00:52 S 11 16.09 Fair CLR 23.9 18.9 74% 25 76.91 1025.5
18 23:52 S 11 16.09 Fair CLR 24.4 18.9 72% 25 76.94 1025.6
18 22:52 S 9 16.09 Fair CLR 24.4 18.9 72% 25 76.91 1025.2
18 21:52 S 11 16.09 Fair CLR 25 18.3 66% 26 76.89 1024.9
18 20:52 SE 9 16.09 Fair CLR 26.1 17.8 60% 27 76.84 1024.2
18 19:52 SE 15 16.09 Fair CLR 27.2 18.9 31.1 27.2 61% 28 76.81 1024.0
18 18:52 SE 17 16.09 Fair CLR 28.3 18.9 57% 30 76.78 1023.7
18 17:52 SE 17 16.09 Fair CLR 29.4 19.4 55% 31 76.76 1023.5
18 16:52 SE 19 16.09 A Few Clouds FEW055 30 19.4 53% 32 76.81 1023.9
18 15:52 SE 15 16.09 A Few Clouds FEW055 30.6 18.9 50% 32 76.81 1024.1
18 14:52 SE 19 16.09 A Few Clouds FEW055 30.6 17.2 45% 31 76.86 1024.5
18 13:52 SE 22 16.09 Fair CLR 29.4 20.6 30 25.6 59% 32 76.86 1024.6
18 12:52 SE 24 16.09 Fair CLR 28.3 20 61% 30 76.86 1024.8
Date Time (edt) Wind (kph) Vis. (km) Weather Sky Cond. Air Dwpt Max. Min. Relative Humidity Wind Chill (°C) Heat Index (°C) altimeter (cm) sea level (mb) 1 hr 3 hr 6 hr
6 hour
Temperature (ºC) Pressure Precipitation (cm)